Location: Rioux
(40.7500°S, 175.7500°E)
Time: 11:12:31
(UTC+00:00)

CORIOLIS - Pass Details

Date: 12 June 2024
Orbit: 816 x 838 km, 98.7° (Epoch: 20 July)

Event Time Altitude Azimuth Distance (km) Brightness Sun altitude
Rises 18:04:53 0° 3° (N) 3,336 7.6 -17.1°
Reaches altitude 10° 18:07:15 10° 359° (N) 2,413 6.8 -16.7°
Maximum altitude 18:12:29 56° 281° (W) 986 4.2 -15.7°
Drops below altitude 10° 18:17:50 10° 202° (SSW) 2,456 6.2 -14.8°
Enters shadow 18:18:49 - 200° (SSW) 2,835 6.6 -14.6°
